Location: Stockholm
(59.3330°N, 18.0500°E)
Time: 13:51:19
(UTC+01:00)

Envisat - Pass Details

Date: 30 November 2022
Orbit: 763 x 765 km, 98.2° (Epoch: 29 January)

Event Time Altitude Azimuth Distance (km) Brightness Sun altitude
Rises 07:06:36 0° 16° (NNE) 3,250 6.1 -7.8°
Reaches altitude 10° 07:10:01 10° 352° (N) 2,320 5.1 -7.4°
Maximum altitude 07:12:31 14° 323° (NW) 2,058 4.7 -7.1°
Drops below altitude 10° 07:15:01 10° 293° (WNW) 2,315 4.8 -6.9°
Enters shadow 07:16:29 - 280° (W) 2,656 5.2 -6.7°
